Location: *
(46.4000°N, 12.6667°E)
Time: 09:07:30
(UTC+00:00)

Envisat - Pass Details

Date: 08 December 2021
Orbit: 764 x 766 km, 98.2° (Epoch: 26 January)

Event Time Altitude Azimuth Distance (km) Brightness Sun altitude
Rises 04:41:57 0° 9° (N) 3,245 6.2 -19.5°
Reaches altitude 10° 04:44:18 10° 6° (N) 2,314 5.4 -19.1°
Maximum altitude 04:49:17 56° 289° (WNW) 908 3.0 -18.2°
Drops below altitude 10° 04:54:13 10° 212° (SSW) 2,297 5.3 -17.4°
Sets 04:56:33 0° 208° (SSW) 3,218 6.1 -17.0°
